Regional Weather Roundup
Issued by NWS Jackson, KY

Home | Current Version | Previous Version | Text Only | Print | Product List | Glossary Off
Versions: 1 2 3 4 5 6 7 8 9 10 11 12 13 14 15 16 17 18 19 20 21 22 23 24 25 26 27 28 29 30 31 32 33 34 35 36 37 38 39 40 41 42 43 44 45 46 47 48 49 50

000
ASUS43 KJKL 242310
RWRJKL

EAST KENTUCKY HOURLY WEATHER ROUNDUP
NATIONAL WEATHER SERVICE JACKSON KY
700 PM EDT FRI OCT 24 2014

NOTE: "FAIR" INDICATES FEW OR NO CLOUDS BELOW 12,000 FEET WITH
NO SIGNIFICANT WEATHER AND/OR OBSTRUCTIONS TO VISIBILITY.

* THESE REPORTS ARE NOT UNDER NWS QUALITY CONTROL AND MAY NOT
  REPORT WEATHER SUCH AS PRECIPITATION AND FOG.

KYZ079-080-083-085-087-088-110-112-115-119-120-250000
...EASTERN KENTUCKY...

CITY           SKY/WX    TMP DP  RH WIND       PRES   REMARKS
JACKSON        CLEAR     59  40  49 CALM      30.06S
LONDON         CLEAR     61  39  44 CALM      30.06S
SOMERSET*      CLEAR     59  43  55 CALM      30.08R
MONTICELLO*    CLEAR     51  42  71 CALM      30.08S
WILLIAMSBURG*  CLEAR     59  41  51 CALM      30.06F
MIDDLESBORO*   CLEAR     56  43  61 CALM      30.07R
HARLAN APT*    CLEAR     59  36  41 CALM      30.06S
HAZARD APT*    CLEAR     57  41  54 CALM      30.07R
BLACK MTN*       N/A     46  37  71 NE1         N/A
PIKEVILLE APT* CLEAR     55  39  54 NW5       30.07R
BIG SANDY*     CLEAR     56  44  63 S3        30.06S
MOREHEAD APT*  CLEAR     59  39  47 SW3       30.08S
$$

KYZ035-036-041-042-044-050-067-078-099-250000
...CENTRAL KENTUCKY...

CITY           SKY/WX    TMP DP  RH WIND       PRES   REMARKS
MT STERLING*   CLEAR     57  39  51 CALM      30.07F
FLEMING/MASON* CLEAR     55  41  58 SW5       30.06S
DANVILLE*      CLEAR     54  37  54 CALM      30.07S
RICHMOND*      CLEAR     59  41  51 CALM      30.05F
LEXINGTON      CLEAR     62  42  47 CALM      30.06S
FRANKFORT      CLEAR     55  43  63 CALM      30.05R
$$

KYZ091>093-OHZ055-061-077-WVZ005-015-034-035-042-250000
...SOUTHERN OHIO/WEST VIRGINIA...

CITY           SKY/WX    TMP DP  RH WIND       PRES   REMARKS
COVINGTON      MOCLDY    58  38  47 S5        30.03F
COLUMBUS       CLEAR     60  34  37 S3        30.01F
DAYTON         MOCLDY    60  39  45 S6        30.03S
WILMINGTON     CLEAR     56  38  50 S5        30.03S
HUNTINGTON     CLEAR     59  40  49 CALM      30.04S
CHARLESTON     CLEAR     57  41  55 SW3       30.04R
PINEVILLE*     CLEAR     48  47  95 MISG      30.10S
BECKLEY        CLEAR     51  37  58 CALM      30.05S
BLUEFIELD      CLEAR     53  36  52 NW6       30.07R
$$

VAZ002-007-008-TNZ017-027-036-066-071-250000
...SOUTHWEST VIRGINIA/EAST TENNESSEE...

CITY           SKY/WX    TMP DP  RH WIND       PRES   REMARKS
WISE*          CLEAR     52  37  58 CALM      30.09R
JONESVILLE*    CLEAR     57  45  62 CALM      30.07R
ABINGDON*      CLEAR     55  39  55 CALM      30.06R
BRISTOL        PTCLDY    55  42  61 W3        30.04S
KNOXVILLE      PTCLDY    61  40  45 CALM      30.03R
OAK RIDGE      CLEAR     61  49  64 CALM      30.06R
CROSSVILLE     CLEAR     61  36  39 NW6       30.07S
NASHVILLE      MOCLDY    65  46  50 NW5       30.07R
$$

...KEY TO REMARKS...
VSB - VISIBILITY IN MILES
WCI - WIND CHILL INDEX
HX  - HEAT INDEX

$$



USA.gov is the U.S. government's official web portal to all federal, state and local government web resources and services.